Regional Weather Roundup
Issued by NWS

Home | Current Version | Previous Version | Text Only | Print | Product List | Glossary On
Versions: 1 2 3 4 5 6 7 8 9 10 11 12 13 14 15 16 17 18 19 20 21 22 23 24 25 26 27 28 29 30 31 32 33 34 35 36 37 38 39 40 41 42 43 44 45 46 47 48 49 50
000
ASUS46 KPQR 282110
RWROR

OREGON REGIONAL WEATHER ROUNDUP
NATIONAL WEATHER SERVICE PORTLAND OR
200 PM PDT FRI APR 28 2017

NOTE: "FAIR" INDICATES FEW OR NO CLOUDS BELOW 12,000 FEET WITH
NO SIGNIFICANT WEATHER AND/OR OBSTRUCTIONS TO VISIBILITY.

ORZ001>013-282200-
NORTHWEST OREGON


CITY           SKY/WX    TMP DP  RH WIND       PRES   REMARKS
ASTORIA        CLOUDY    54  39  57 NW12      30.39S
NEWPORT        PTSUNNY   54  43  66 NW14G21   30.41F
PORTLAND       PTSUNNY   58  35  42 NW3       30.36F
VANCOUVER WA   PTSUNNY   58  39  49 SW10      30.35F
SCAPPOOSE      CLOUDY    56  41  57 SW6       30.35F
HILLSBORO      CLOUDY    57  40  52 E7        30.35F
AURORA         PTSUNNY   55  38  52 SW3       30.38F
MCMINNVILLE    CLOUDY    55  38  52 VRB5      30.38F
SALEM          CLOUDY    56  36  47 N5        30.36F
CORVALLIS      CLOUDY    57  36  44 CALM      30.38F
EUGENE         FAIR      57  39  51 NE12      30.37F
$$

ORZ021-028-282200-
SOUTHWEST OREGON


CITY           SKY/WX    TMP DP  RH WIND       PRES   REMARKS
NORTH BEND     FAIR      55  45  67 N16       30.37F
BROOKINGS      FAIR      60  44  55 NW14      30.23F
ROSEBURG       FAIR      58  34  40 N14       30.33F
SEXTON SUMMIT  FAIR      46  32  58 VRB3      30.24S
MEDFORD        FAIR      58  31  35 CALM      30.26F
$$

ORZ014>016-041-282200-
COLUMBIA GORGE


CITY           SKY/WX    TMP DP  RH WIND       PRES   REMARKS
TROUTDALE      PTSUNNY   59  39  47 NW7       30.36F
HOOD RIVER     FAIR      55  37  50 W8G18     30.30F
THE DALLES     FAIR      62  37  39 NW17      30.27F
$$

ORZ029>031-041-044-049-050-061>064-502-503-505>511-282200-
EASTERN OREGON


CITY           SKY/WX    TMP DP  RH WIND       PRES   REMARKS
REDMOND        FAIR      53  16  23 N8        30.23F
BEND           FAIR      50  18  27 CALM      30.23S
PRINEVILLE     FAIR      50  25  37 NW8       30.23F
KLAMATH FALLS  FAIR      51  25  36 N12       30.19F
LAKEVIEW       FAIR      46  19  34 N12G22    30.20S
HERMISTON      FAIR      61  32  33 VRB6G17   30.23F
PENDLETON      FAIR      56  36  47 S7        30.23F
JOHN DAY       PTSUNNY   45  31  58 CALM      30.22F
MEACHAM        PTSUNNY   46  26  45 VRB3      30.21F
LA GRANDE      CLOUDY    52  34  50 NW6       30.21S
BAKER CITY     FAIR      51  31  46 NW25G31   30.19R
BURNS          PTSUNNY   48  27  44 N12       30.18F
ROME             N/A     52  22  30 N14G22    30.15R
ONTARIO        PTSUNNY   59  31  34 NW15G26   30.15S
$$



USA.gov is the U.S. government's official web portal to all federal, state and local government web resources and services.